Regional Weather Roundup
Issued by NWS

Home | Current Version | Previous Version | Text Only | Print | Product List | Glossary Off
Versions: 1 2 3 4 5 6 7 8 9 10 11 12 13 14 15 16 17 18 19 20 21 22 23 24 25 26 27 28 29 30 31 32 33 34 35 36 37 38 39 40 41 42 43 44 45 46 47 48 49 50

000
ASUS43 KFSD 300510
RWRSD

WEATHER ROUNDUP FOR SOUTH DAKOTA
NATIONAL WEATHER SERVICE SIOUX FALLS SD
1200 AM CDT WED JUL 30 2014

NOTE: "FAIR" INDICATES FEW OR NO CLOUDS BELOW 12,000 FEET WITH NO
SIGNIFICANT WEATHER AND/OR OBSTRUCTIONS TO VISIBILITY.


SDZ001>005-009-010-012>017-300600-
NORTHWEST AND NORTH CENTRAL SOUTH DAKOTA

CITY           SKY/WX    TMP DP  RH WIND       PRES   REMARKS
BUFFALO          N/A     64  51  62 W13       30.12S
FAITH            N/A     63  53  70 SW6       30.17S
MOBRIDGE       MOCLDY    63  56  78 SE5       30.13S
$$

SDZ012>016-024>037-041>051-057-063-072>074-300600-
SOUTHWEST AND SOUTH CENTRAL SOUTH DAKOTA

CITY           SKY/WX    TMP DP  RH WIND       PRES   REMARKS
RAPID CTY ARPT PTCLDY    60  53  77 SW6       30.21F
PIERRE         CLEAR     62  53  72 NE6       30.14S
CUSTER         MOCLDY    54  45  71 W3        30.33F
ELLSWORTH AFB  CLEAR     62  55  77 SW7       30.20F
PHILIP         CLEAR     62  49  62 CALM      30.17S
PINE RIDGE     MOCLDY    55  53  93 E3        30.23S
WINNER         FAIR      61  50  67 S6        30.17R
$$

SDZ004>011-016>023-039-040-300600-
NORTHEAST SOUTH DAKOTA

CITY           SKY/WX    TMP DP  RH WIND       PRES   REMARKS
ABERDEEN       CLEAR     55  52  89 CALM      30.14S
WATERTOWN      CLEAR     58  51  78 CALM      30.15R
SISSETON         N/A     57  55  93 CALM      30.12R
$$

SDZ017-020-022-023-036>040-048>070-300600-
SOUTHEAST SOUTH DAKOTA

CITY           SKY/WX    TMP DP  RH WIND       PRES   REMARKS
SIOUX FALLS    CLEAR     60  55  83 CALM      30.14S
HURON          CLEAR     58  54  86 CALM      30.14R
CHAMBERLAIN    CLEAR     58  52  79 E3        30.16R
MITCHELL       CLEAR     62  54  74 CALM      30.14S
YANKTON        CLEAR     64  55  72 SW5       30.15R
$$

ABBREVIATIONS USED IN REMARKS
   TC - TEMPERATURE IN CELSIUS
  WCI - WIND CHILL INDEX
   HX - HEAT INDEX
  VSB - VISIBILITY



USA.gov is the U.S. government's official web portal to all federal, state and local government web resources and services.